| time (UTC) | temp F | wind direction | speed MPH | gust MPH | rain 1hr in | rain 24hr in | rain mn in | humidity % | barometer mb |
| 20260507202933 | 0 | 351 | 2.0 | 2.0 | 0.00 | 0.00 | 0.00 | 70 | |
| 20260507202433 | 0 | 348 | 0.0 | 2.0 | 0.00 | 0.00 | 0.00 | 70 | |
| 20260507201933 | 0 | 4 | 0.0 | 0.0 | 0.00 | 0.00 | 0.00 | 70 | |
| 20260507201433 | 0 | 4 | 0.0 | 0.0 | 0.00 | 0.00 | 0.00 | 69 | |
| 20260507200933 | 0 | 4 | 0.0 | 0.0 | 0.00 | 0.00 | 0.00 | 70 | |
| 20260507200433 | 0 | 4 | 0.0 | 4.0 | 0.00 | 0.00 | 0.00 | 69 | |
| 20260507195933 | 0 | 357 | 3.0 | 3.0 | 0.00 | 0.00 | 0.00 | 68 | |
| 20260507195433 | 0 | 348 | 0.0 | 1.0 | 0.00 | 0.00 | 0.00 | 67 | |
| 20260507194933 | 0 | 32 | 0.0 | 0.0 | 0.00 | 0.00 | 0.00 | 67 | |
| 20260507194433 | 0 | 32 | 0.0 | 0.0 | 0.00 | 0.00 | 0.00 | 65 | |
| 20260507193933 | 0 | 32 | 0.0 | 0.0 | 0.00 | 0.00 | 0.00 | 64 | |
| 20260507193433 | 0 | 32 | 0.0 | 1.0 | 0.00 | 0.00 | 0.00 | 64 | |
| 20260507192933 | 0 | 320 | 0.0 | 3.0 | 0.00 | 0.00 | 0.00 | 65 | |
| 20260507192433 | 0 | 355 | 2.0 | 2.0 | 0.00 | 0.00 | 0.00 | 64 | |
| 20260507191933 | 0 | 357 | 1.0 | 4.0 | 0.00 | 0.00 | 0.00 | 63 | |
| 20260507191433 | 0 | 0 | 3.0 | 3.0 | 0.00 | 0.00 | 0.00 | 62 | |
| 20260507190933 | 0 | 358 | 2.0 | 3.0 | 0.00 | 0.00 | 0.00 | 61 | |
| 20260507190433 | 0 | 1 | 3.0 | 6.0 | 0.00 | 0.00 | 0.00 | 61 | |
| 20260507185933 | 0 | 343 | 5.0 | 5.0 | 0.00 | 0.00 | 0.00 | 61 | |
| 20260507185433 | 0 | 330 | 2.0 | 5.0 | 0.00 | 0.00 | 0.00 | 60 | |
| 20260507184933 | 0 | 9 | 4.0 | 6.0 | 0.00 | 0.00 | 0.00 | 60 | |
| 20260507184433 | 0 | 118 | 0.0 | 7.0 | 0.00 | 0.00 | 0.00 | 61 | |
| 20260507183933 | 0 | 285 | 2.0 | 7.0 | 0.00 | 0.00 | 0.00 | 60 | |
| 20260507183434 | 0 | 303 | 2.0 | 8.0 | 0.00 | 0.00 | 0.00 | 60 | |
| 20260507182933 | 0 | 334 | 6.0 | 10.0 | 0.00 | 0.00 | 0.00 | 60 | |
| 20260507182433 | 0 | 306 | 2.0 | 8.0 | 0.00 | 0.00 | 0.00 | 59 | |
| 20260507181933 | 0 | 0 | 7.0 | 9.0 | 0.00 | 0.00 | 0.00 | 54 | |
| 20260507181434 | 0 | 15 | 5.0 | 8.0 | 0.00 | 0.00 | 0.00 | 54 | |
| 20260507180934 | 0 | 309 | 5.0 | 9.0 | 0.00 | 0.00 | 0.00 | 53 | |
| 20260507180434 | 0 | 333 | 3.0 | 11.0 | 0.00 | 0.00 | 0.00 | 52 | |
| 20260507175934 | 21 | 12 | 8.0 | 11.0 | 0.00 | 0.00 | 0.00 | 55 | |
| 20260507175434 | 22 | 337 | 6.0 | 9.0 | 0.00 | 0.00 | 0.00 | 54 | |
| 20260507174934 | 22 | 8 | 5.0 | 10.0 | 0.00 | 0.00 | 0.00 | 53 | |
| 20260507174434 | 22 | 136 | 1.0 | 8.0 | 0.00 | 0.00 | 0.00 | 52 | |
| 20260507173934 | 22 | 345 | 6.0 | 11.0 | 0.00 | 0.00 | 0.00 | 52 | |
| 20260507173434 | 21 | 310 | 8.0 | 10.0 | 0.00 | 0.00 | 0.00 | 51 | |
| 20260507172934 | 22 | 319 | 4.0 | 10.0 | 0.00 | 0.00 | 0.00 | 50 | |
| 20260507172434 | 23 | 236 | 1.0 | 9.0 | 0.00 | 0.00 | 0.00 | 48 | |
| 20260507171934 | 23 | 313 | 6.0 | 9.0 | 0.00 | 0.00 | 0.00 | 49 | |
| 20260507171434 | 22 | 358 | 5.0 | 10.0 | 0.00 | 0.00 | 0.00 | 50 | |
| 20260507170934 | 22 | 312 | 6.0 | 12.0 | 0.00 | 0.00 | 0.00 | 49 | |
| 20260507170434 | 23 | 47 | 3.0 | 10.0 | 0.00 | 0.00 | 0.00 | 48 | |
| 20260507165934 | 22 | 236 | 1.0 | 9.0 | 0.00 | 0.00 | 0.00 | 48 | |
| 20260507165434 | 23 | 59 | 0.0 | 13.0 | 0.00 | 0.00 | 0.00 | 49 | |
| 20260507164934 | 23 | 209 | 7.0 | 11.0 | 0.00 | 0.00 | 0.00 | 49 | |
| 20260507164434 | 22 | 310 | 9.0 | 13.0 | 0.00 | 0.00 | 0.00 | 48 | |
| 20260507163934 | 23 | 206 | 5.0 | 10.0 | 0.00 | 0.00 | 0.00 | 47 | |
| 20260507163434 | 22 | 358 | 4.0 | 10.0 | 0.00 | 0.00 | 0.00 | 48 | |
| 20260507162934 | 22 | 312 | 7.0 | 10.0 | 0.00 | 0.00 | 0.00 | 49 | |
| 20260507162434 | 21 | 105 | 2.0 | 11.0 | 0.00 | 0.00 | 0.00 | 50 | |
| 20260507161934 | 21 | 347 | 9.0 | 10.0 | 0.00 | 0.00 | 0.00 | 50 | |
| 20260507161434 | 22 | 307 | 3.0 | 10.0 | 0.00 | 0.00 | 0.00 | 47 | |
| 20260507160934 | 22 | 50 | 0.0 | 6.0 | 0.00 | 0.00 | 0.00 | 48 | |
| 20260507160434 | 22 | 178 | 2.0 | 10.0 | 0.00 | 0.00 | 0.00 | 50 | |
| 20260507155934 | 21 | 66 | 6.0 | 6.0 | 0.00 | 0.00 | 0.00 | 51 | |
| 20260507155434 | 22 | 257 | 3.0 | 9.0 | 0.00 | 0.00 | 0.00 | 51 | |
| 20260507154934 | 22 | 284 | 2.0 | 8.0 | 0.00 | 0.00 | 0.00 | 50 | |
| 20260507154434 | 21 | 336 | 5.0 | 10.0 | 0.00 | 0.00 | 0.00 | 48 | |
| 20260507153934 | 21 | 5 | 5.0 | 10.0 | 0.00 | 0.00 | 0.00 | 48 | |
| 20260507153434 | 22 | 251 | 5.0 | 10.0 | 0.00 | 0.00 | 0.00 | 49 | |
| 20260507152934 | 22 | 347 | 1.0 | 7.0 | 0.00 | 0.00 | 0.00 | 48 | |
| 20260507152434 | 0 | 236 | 3.0 | 8.0 | 0.00 | 0.00 | 0.00 | 47 | |
| 20260507151934 | 0 | 37 | 5.0 | 9.0 | 0.00 | 0.00 | 0.00 | 100 | |
| 20260507151434 | 0 | 175 | 0.0 | 8.0 | 0.00 | 0.00 | 0.00 | 100 | |
| 20260507150934 | 0 | 187 | 2.0 | 11.0 | 0.00 | 0.00 | 0.00 | 100 | |
| 20260507150434 | 0 | 240 | 3.0 | 8.0 | 0.00 | 0.00 | 0.00 | 100 | |
| 20260507145934 | 0 | 354 | 7.0 | 8.0 | 0.00 | 0.00 | 0.00 | 100 | |
| 20260507145434 | 0 | 313 | 3.0 | 6.0 | 0.00 | 0.00 | 0.00 | 100 | |
| 20260507144934 | 0 | 47 | 0.0 | 3.0 | 0.00 | 0.00 | 0.00 | 100 | |
| 20260507144434 | 0 | 60 | 1.0 | 2.0 | 0.00 | 0.00 | 0.00 | 100 | |
| 20260507143934 | 0 | 71 | 0.0 | 4.0 | 0.00 | 0.00 | 0.00 | 100 | |
| 20260507143434 | 0 | 295 | 0.0 | 5.0 | 0.00 | 0.00 | 0.00 | 100 | |
| 20260507142934 | 0 | 104 | 0.0 | 3.0 | 0.00 | 0.00 | 0.00 | 100 | |
| 20260507142434 | 0 | 1 | 0.0 | 6.0 | 0.00 | 0.00 | 0.00 | 100 | |
| 20260507141934 | 0 | 309 | 0.0 | 4.0 | 0.00 | 0.00 | 0.00 | 100 | |
| 20260507141434 | 13 | 336 | 3.0 | 6.0 | 0.00 | 0.00 | 0.00 | 44 | |
| 20260507140934 | 14 | 272 | 3.0 | 7.0 | 0.00 | 0.00 | 0.00 | 40 | |
| 20260507140434 | 11 | 337 | 4.0 | 4.0 | 0.00 | 0.00 | 0.00 | 44 | |
| 20260507135934 | 13 | 343 | 4.0 | 4.0 | 0.00 | 0.00 | 0.00 | 44 | |
| 20260507135434 | 13 | 175 | 2.0 | 4.0 | 0.00 | 0.00 | 0.00 | 44 | |
| 20260507134934 | 14 | 32 | 0.0 | 3.0 | 0.00 | 0.00 | 0.00 | 40 | |
| 20260507134434 | 12 | 264 | 0.0 | 5.0 | 0.00 | 0.00 | 0.00 | 46 | |
| 20260507133934 | 12 | 348 | 3.0 | 8.0 | 0.00 | 0.00 | 0.00 | 45 | |
| 20260507133434 | 12 | 275 | 1.0 | 6.0 | 0.00 | 0.00 | 0.00 | 46 | |
| 20260507132934 | 13 | 258 | 1.0 | 6.0 | 0.00 | 0.00 | 0.00 | 47 | |
| 20260507132434 | 14 | 4 | 1.0 | 6.0 | 0.00 | 0.00 | 0.00 | 49 | |
| 20260507131934 | 13 | 299 | 4.0 | 6.0 | 0.00 | 0.00 | 0.00 | 47 | |
| 20260507131434 | 12 | 330 | 0.0 | 9.0 | 0.00 | 0.00 | 0.00 | 48 | |
| 20260507130934 | 14 | 313 | 4.0 | 6.0 | 0.00 | 0.00 | 0.00 | 48 | |
| 20260507130434 | 15 | 298 | 2.0 | 6.0 | 0.00 | 0.00 | 0.00 | 50 | |
| 20260507125934 | 15 | 358 | 5.0 | 6.0 | 0.00 | 0.00 | 0.00 | 49 | |
| 20260507125434 | 15 | 310 | 0.0 | 4.0 | 0.00 | 0.00 | 0.00 | 49 | |
| 20260507124934 | 15 | 299 | 3.0 | 6.0 | 0.00 | 0.00 | 0.00 | 47 | |
| 20260507124434 | 0 | 18 | 1.0 | 6.0 | 0.00 | 0.00 | 0.00 | 100 | |
| 20260507123934 | 15 | 32 | 0.0 | 5.0 | 0.00 | 0.00 | 0.00 | 47 | |
| 20260507123434 | 14 | 60 | 0.0 | 2.0 | 0.00 | 0.00 | 0.00 | 44 | |
| 20260507122934 | 10 | 8 | 0.0 | 3.0 | 0.00 | 0.00 | 0.00 | 46 | |
| 20260507122434 | 10 | 351 | 3.0 | 5.0 | 0.00 | 0.00 | 0.00 | 49 | |
| 20260507121934 | 8 | 337 | 3.0 | 5.0 | 0.00 | 0.00 | 0.00 | 50 | |
| 20260507121434 | 7 | 303 | 0.0 | 5.0 | 0.00 | 0.00 | 0.00 | 51 | |
| 20260507120934 | 6 | 345 | 4.0 | 7.0 | 0.00 | 0.00 | 0.00 | 52 | |
| 20260507120434 | 18 | 358 | 5.0 | 7.0 | 0.00 | 0.00 | 0.00 | 50 | |
| 20260507115934 | 19 | 350 | 3.0 | 8.0 | 0.00 | 0.00 | 0.00 | 50 | |
| 20260507115434 | 22 | 274 | 2.0 | 7.0 | 0.00 | 0.00 | 0.00 | 51 | |
| 20260507114934 | 13 | 195 | 0.0 | 4.0 | 0.00 | 0.00 | 0.00 | 52 | |
| 20260507114434 | 20 | 156 | 3.0 | 6.0 | 0.00 | 0.00 | 0.00 | 51 | |
| 20260507113934 | 14 | 178 | 1.0 | 7.0 | 0.00 | 0.00 | 0.00 | 53 | |
| 20260507113435 | 12 | 267 | 2.0 | 7.0 | 0.00 | 0.00 | 0.00 | 55 | |
| 20260507112934 | 12 | 250 | 2.0 | 6.0 | 0.00 | 0.00 | 0.00 | 51 | |
| 20260507112434 | 9 | 9 | 3.0 | 9.0 | 0.00 | 0.00 | 0.00 | 50 | |
| 20260507111935 | 7 | 271 | 3.0 | 9.0 | 0.00 | 0.00 | 0.00 | 50 | |
| 20260507111434 | 7 | 355 | 5.0 | 8.0 | 0.00 | 0.00 | 0.00 | 58 | |
| 20260507110935 | 12 | 136 | 1.0 | 8.0 | 0.00 | 0.00 | 0.00 | 60 | |
| 20260507110435 | 13 | 264 | 8.0 | 9.0 | 0.00 | 0.00 | 0.00 | 60 | |
| 20260507105935 | 10 | 286 | 7.0 | 10.0 | 0.00 | 0.00 | 0.00 | 60 | |
| 20260507105435 | 8 | 23 | 4.0 | 14.0 | 0.00 | 0.00 | 0.00 | 61 | |
| 20260507104935 | 25 | 262 | 8.0 | 12.0 | 0.00 | 0.00 | 0.00 | 52 | |
| 20260507104435 | 18 | 32 | 0.0 | 4.0 | 0.00 | 0.00 | 0.00 | 45 | |
| 20260507103935 | 19 | 18 | 0.0 | 4.0 | 0.00 | 0.00 | 0.00 | 46 | |
| 20260507103435 | 21 | 46 | 0.0 | 3.0 | 0.00 | 0.00 | 0.00 | 45 | |
| 20260507102935 | 20 | 151 | 0.0 | 2.0 | 0.00 | 0.00 | 0.00 | 45 | |
| 20260507102435 | 17 | 340 | 0.0 | 3.0 | 0.00 | 0.00 | 0.00 | 51 | |
| 20260507101935 | 22 | 334 | 0.0 | 4.0 | 0.00 | 0.00 | 0.00 | 49 | |
| 20260507101435 | 17 | 355 | 0.0 | 2.0 | 0.00 | 0.00 | 0.00 | 55 | |
| 20260507100935 | 16 | 284 | 0.0 | 2.0 | 0.00 | 0.00 | 0.00 | 55 | |
| 20260507100435 | 17 | 319 | 0.0 | 1.0 | 0.00 | 0.00 | 0.00 | 57 | |
| 20260507095935 | 14 | 319 | 0.0 | 3.0 | 0.00 | 0.00 | 0.00 | 56 | |
| 20260507095435 | 0 | 0 | 2.0 | 4.0 | 0.00 | 0.00 | 0.00 | 54 | |
| 20260507094935 | 0 | 352 | 2.0 | 2.0 | 0.00 | 0.00 | 0.00 | 55 | |
| 20260507094435 | 0 | 326 | 0.0 | 2.0 | 0.00 | 0.00 | 0.00 | 56 | |
| 20260507093935 | 0 | 45 | 0.0 | 2.0 | 0.00 | 0.00 | 0.00 | 56 | |
| 20260507093435 | 0 | 357 | 0.0 | 0.0 | 0.00 | 0.00 | 0.00 | 58 | |
| 20260507092935 | 0 | 351 | 0.0 | 2.0 | 0.00 | 0.00 | 0.00 | 60 | |
| 20260507092435 | 0 | 9 | 2.0 | 3.0 | 0.00 | 0.00 | 0.00 | 60 | |
| 20260507091935 | 0 | 275 | 0.0 | 2.0 | 0.00 | 0.00 | 0.00 | 60 | |
| 20260507091435 | 0 | 15 | 0.0 | 2.0 | 0.00 | 0.00 | 0.00 | 62 | |
| 20260507090935 | 0 | 8 | 0.0 | 1.0 | 0.00 | 0.00 | 0.00 | 63 | |
| 20260507090435 | 0 | 181 | 0.0 | 0.0 | 0.00 | 0.00 | 0.00 | 64 | |
| 20260507085935 | 0 | 181 | 0.0 | 3.0 | 0.00 | 0.00 | 0.00 | 65 | |
| 20260507085435 | 0 | 49 | 0.0 | 1.0 | 0.00 | 0.00 | 0.00 | 66 | |
| 20260507084935 | 0 | 227 | 0.0 | 1.0 | 0.00 | 0.00 | 0.00 | 66 | |
| 20260507084435 | 0 | 4 | 1.0 | 3.0 | 0.00 | 0.00 | 0.00 | 65 | |
| 20260507083935 | 0 | 227 | 0.0 | 1.0 | 0.00 | 0.00 | 0.00 | 69 | |
| 20260507083435 | 0 | 9 | 0.0 | 3.0 | 0.00 | 0.00 | 0.00 | 68 | |
| 20260507082935 | 0 | 336 | 0.0 | 2.0 | 0.00 | 0.00 | 0.00 | 68 | |
| 20260507082435 | 0 | 345 | 0.0 | 3.0 | 0.00 | 0.00 | 0.00 | 69 | |
| 20260507081935 | 0 | 11 | 0.0 | 3.0 | 0.00 | 0.00 | 0.00 | 69 | |
| 20260507081435 | 0 | 26 | 0.0 | 3.0 | 0.00 | 0.00 | 0.00 | 70 | |
| 20260507080935 | 0 | 25 | 0.0 | 2.0 | 0.00 | 0.00 | 0.00 | 71 | |
| 20260507080435 | 0 | 354 | 0.0 | 3.0 | 0.00 | 0.00 | 0.00 | 73 | |
| 20260507075935 | 0 | 16 | 2.0 | 4.0 | 0.00 | 0.00 | 0.00 | 67 | |
| 20260507075435 | 0 | 323 | 0.0 | 1.0 | 0.00 | 0.00 | 0.00 | 70 | |
| 20260507074935 | 0 | 331 | 0.0 | 3.0 | 0.00 | 0.00 | 0.00 | 70 | |
| 20260507074435 | 0 | 32 | 1.0 | 4.0 | 0.00 | 0.00 | 0.00 | 70 | |
| 20260507073935 | 0 | 37 | 0.0 | 3.0 | 0.00 | 0.00 | 0.00 | 76 | |
| 20260507073435 | 0 | 1 | 0.0 | 3.0 | 0.00 | 0.00 | 0.00 | 75 | |
| 20260507072935 | 0 | 336 | 1.0 | 3.0 | 0.00 | 0.00 | 0.00 | 74 | |
| 20260507072435 | 0 | 344 | 3.0 | 3.0 | 0.00 | 0.00 | 0.00 | 74 | |
| 20260507071935 | 0 | 348 | 0.0 | 2.0 | 0.00 | 0.00 | 0.00 | 77 | |
| 20260507071435 | 0 | 340 | 0.0 | 2.0 | 0.00 | 0.00 | 0.00 | 75 | |
| 20260507070935 | 0 | 312 | 0.0 | 2.0 | 0.00 | 0.00 | 0.00 | 77 | |
| 20260507070435 | 0 | 315 | 0.0 | 2.0 | 0.00 | 0.00 | 0.00 | 75 | |
| 20260507065935 | 0 | 350 | 0.0 | 0.0 | 0.00 | 0.00 | 0.00 | 77 | |
| 20260507065435 | 0 | 350 | 0.0 | 0.0 | 0.00 | 0.00 | 0.00 | 76 | |
| 20260507064935 | 0 | 350 | 0.0 | 0.0 | 0.00 | 0.00 | 0.00 | 80 | |
| 20260507064435 | 0 | 350 | 0.0 | 0.0 | 0.00 | 0.00 | 0.00 | 81 | |
| 20260507063935 | 0 | 350 | 0.0 | 0.0 | 0.00 | 0.00 | 0.00 | 81 | |
| 20260507063435 | 0 | 350 | 0.0 | 0.0 | 0.00 | 0.00 | 0.00 | 83 | |
| 20260507062935 | 0 | 350 | 0.0 | 2.0 | 0.00 | 0.00 | 0.00 | 82 | |
| 20260507062435 | 0 | 350 | 2.0 | 2.0 | 0.00 | 0.00 | 0.00 | 84 | |
| 20260507061935 | 0 | 171 | 0.0 | 0.0 | 0.00 | 0.00 | 0.00 | 85 | |
| 20260507061435 | 0 | 171 | 0.0 | 0.0 | 0.00 | 0.00 | 0.00 | 85 | |
| 20260507060935 | 0 | 171 | 0.0 | 0.0 | 0.00 | 0.00 | 0.00 | 85 | |
| 20260507060435 | 0 | 171 | 0.0 | 0.0 | 0.00 | 0.00 | 0.00 | 87 | |
| 20260507055935 | 0 | 171 | 0.0 | 0.0 | 0.00 | 0.00 | 0.00 | 86 | |
| 20260507055435 | 0 | 171 | 0.0 | 0.0 | 0.00 | 0.00 | 0.00 | 88 | |
| 20260507054935 | 0 | 171 | 0.0 | 0.0 | 0.00 | 0.00 | 0.00 | 89 | |
| 20260507054435 | 0 | 171 | 0.0 | 0.0 | 0.00 | 0.00 | 0.00 | 88 | |
| 20260507053935 | 0 | 171 | 0.0 | 0.0 | 0.00 | 0.00 | 0.00 | 88 | |
| 20260507053435 | 0 | 171 | 0.0 | 0.0 | 0.00 | 0.00 | 0.00 | 88 | |
| 20260507052935 | 0 | 171 | 0.0 | 0.0 | 0.00 | 0.00 | 0.00 | 88 | |
| 20260507052435 | 0 | 171 | 0.0 | 0.0 | 0.00 | 0.00 | 0.00 | 89 | |
| 20260507051935 | 0 | 171 | 0.0 | 0.0 | 0.00 | 0.00 | 0.00 | 89 | |
| 20260507051435 | 0 | 171 | 0.0 | 0.0 | 0.00 | 0.00 | 0.00 | 89 | |
| 20260507050935 | 0 | 171 | 0.0 | 0.0 | 0.00 | 0.00 | 0.00 | 89 | |
| 20260507050435 | 0 | 171 | 0.0 | 0.0 | 0.00 | 0.00 | 0.00 | 89 | |
| 20260507045935 | 0 | 171 | 0.0 | 0.0 | 0.00 | 0.00 | 0.00 | 89 | |
| 20260507045435 | 0 | 171 | 0.0 | 0.0 | 0.00 | 0.00 | 0.00 | 88 | |
| 20260507044936 | 0 | 171 | 0.0 | 0.0 | 0.00 | 0.00 | 0.00 | 88 | |
| 20260507044436 | 0 | 171 | 0.0 | 0.0 | 0.00 | 0.00 | 0.00 | 88 | |
| 20260507043936 | 0 | 171 | 0.0 | 0.0 | 0.00 | 0.00 | 0.00 | 88 | |
| 20260507043436 | 0 | 171 | 0.0 | 0.0 | 0.00 | 0.00 | 0.00 | 90 | |
| 20260507042936 | 0 | 171 | 0.0 | 0.0 | 0.00 | 0.00 | 0.00 | 89 | |
| 20260507042436 | 0 | 171 | 0.0 | 0.0 | 0.00 | 0.00 | 0.00 | 88 | |
| 20260507041936 | 0 | 171 | 0.0 | 0.0 | 0.00 | 0.00 | 0.00 | 88 | |
| 20260507041436 | 0 | 171 | 0.0 | 0.0 | 0.00 | 0.00 | 0.00 | 87 | |
| 20260507040936 | 0 | 171 | 0.0 | 0.0 | 0.00 | 0.00 | 0.00 | 87 | |
| 20260507040436 | 0 | 171 | 0.0 | 0.0 | 0.00 | 0.00 | 0.00 | 87 | |
| 20260507035936 | 0 | 171 | 0.0 | 0.0 | 0.00 | 0.00 | 0.00 | 87 | |
| 20260507035436 | 0 | 171 | 0.0 | 0.0 | 0.00 | 0.00 | 0.00 | 89 | |
| 20260507034936 | 0 | 171 | 0.0 | 0.0 | 0.00 | 0.00 | 0.00 | 88 | |
| 20260507034436 | 0 | 171 | 0.0 | 0.0 | 0.00 | 0.00 | 0.00 | 88 | |
| 20260507033936 | 0 | 171 | 0.0 | 0.0 | 0.00 | 0.00 | 0.00 | 88 | |
| 20260507033436 | 0 | 171 | 0.0 | 0.0 | 0.00 | 0.00 | 0.00 | 89 | |
| 20260507032936 | 0 | 171 | 0.0 | 0.0 | 0.00 | 0.00 | 0.00 | 87 | |
| 20260507032436 | 0 | 171 | 0.0 | 0.0 | 0.00 | 0.00 | 0.00 | 88 | |
| 20260507031936 | 0 | 171 | 0.0 | 0.0 | 0.00 | 0.00 | 0.00 | 89 | |
| 20260507031436 | 0 | 171 | 0.0 | 0.0 | 0.00 | 0.00 | 0.00 | 89 | |
| 20260507030936 | 0 | 171 | 0.0 | 0.0 | 0.00 | 0.00 | 0.00 | 89 | |
| 20260507030436 | 0 | 171 | 0.0 | 0.0 | 0.00 | 0.00 | 0.00 | 89 | |
| 20260507025936 | 0 | 171 | 0.0 | 0.0 | 0.00 | 0.00 | 0.00 | 90 | |
| 20260507025436 | 0 | 171 | 0.0 | 0.0 | 0.00 | 0.00 | 0.00 | 89 | |
| 20260507024936 | 0 | 171 | 0.0 | 0.0 | 0.00 | 0.00 | 0.00 | 89 | |
| 20260507024436 | 0 | 171 | 0.0 | 0.0 | 0.00 | 0.00 | 0.00 | 88 | |
| 20260507023936 | 0 | 171 | 0.0 | 0.0 | 0.00 | 0.00 | 0.00 | 86 | |
| 20260507023436 | 0 | 171 | 0.0 | 0.0 | 0.00 | 0.00 | 0.00 | 87 | |
| 20260507022936 | 0 | 171 | 0.0 | 4.0 | 0.00 | 0.00 | 0.00 | 86 | |
| 20260507022436 | 0 | 75 | 1.0 | 5.0 | 0.00 | 0.00 | 0.00 | 85 | |
| 20260507021936 | 0 | 111 | 3.0 | 7.0 | 0.00 | 0.00 | 0.00 | 85 | |
| 20260507021436 | 0 | 161 | 6.0 | 6.0 | 0.00 | 0.00 | 0.00 | 86 | |
| 20260507020936 | 0 | 191 | 0.0 | 0.0 | 0.00 | 0.00 | 0.00 | 88 | |
| 20260507020436 | 0 | 191 | 0.0 | 0.0 | 0.00 | 0.00 | 0.00 | 89 | |
| 20260507015936 | 0 | 191 | 0.0 | 1.0 | 0.00 | 0.00 | 0.00 | 89 | |
| 20260507015436 | 0 | 219 | 1.0 | 1.0 | 0.00 | 0.00 | 0.00 | 89 | |
| 20260507014936 | 0 | 344 | 0.0 | 0.0 | 0.00 | 0.00 | 0.00 | 89 | |
| 20260507014436 | 0 | 344 | 0.0 | 0.0 | 0.00 | 0.00 | 0.00 | 89 | |
| 20260507013936 | 0 | 344 | 0.0 | 0.0 | 0.00 | 0.00 | 0.00 | 89 | |
| 20260507013436 | 0 | 344 | 0.0 | 0.0 | 0.00 | 0.00 | 0.00 | 89 | |
| 20260507012936 | 0 | 344 | 0.0 | 0.0 | 0.00 | 0.00 | 0.00 | 89 | |
| 20260507012437 | 0 | 344 | 0.0 | 0.0 | 0.00 | 0.00 | 0.00 | 89 | |
| 20260507011936 | 0 | 344 | 0.0 | 0.0 | 0.00 | 0.00 | 0.00 | 89 | |
| 20260507011436 | 0 | 344 | 0.0 | 0.0 | 0.00 | 0.00 | 0.00 | 89 | |
| 20260507010936 | 0 | 344 | 0.0 | 0.0 | 0.00 | 0.00 | 0.00 | 88 | |
| 20260507010436 | 0 | 344 | 0.0 | 0.0 | 0.00 | 0.00 | 0.00 | 88 | |
| 20260507005936 | 0 | 344 | 0.0 | 0.0 | 0.00 | 0.00 | 0.00 | 88 | |
| 20260507005436 | 0 | 344 | 0.0 | 0.0 | 0.00 | 0.00 | 0.00 | 90 | |
| 20260507004936 | 0 | 344 | 0.0 | 0.0 | 0.00 | 0.00 | 0.00 | 89 | |
| 20260507004436 | 0 | 344 | 0.0 | 0.0 | 0.00 | 0.00 | 0.00 | 89 | |
| 20260507003936 | 0 | 344 | 0.0 | 0.0 | 0.00 | 0.00 | 0.00 | 88 | |
| 20260507003436 | 0 | 344 | 0.0 | 1.0 | 0.00 | 0.00 | 0.00 | 88 | |
| 20260507002936 | 0 | 271 | 0.0 | 0.0 | 0.00 | 0.00 | 0.00 | 88 | |
| 20260507002436 | 0 | 271 | 0.0 | 2.0 | 0.00 | 0.00 | 0.00 | 87 | |
| 20260507001936 | 0 | 281 | 0.0 | 0.0 | 0.00 | 0.00 | 0.00 | 88 | |
| 20260507001436 | 0 | 281 | 0.0 | 0.0 | 0.00 | 0.00 | 0.00 | 89 | |
| 20260507000936 | 0 | 281 | 0.0 | 0.0 | 0.00 | 0.00 | 0.00 | 89 | |
| 20260507000436 | 0 | 281 | 0.0 | 0.0 | 0.00 | 0.00 | 0.00 | 89 | |
| 20260506235936 | 0 | 281 | 0.0 | 0.0 | 0.00 | 0.00 | 0.00 | 89 | |
| 20260506235436 | 0 | 281 | 0.0 | 0.0 | 0.00 | 0.00 | 0.00 | 90 | |
| 20260506234936 | 0 | 281 | 0.0 | 0.0 | 0.00 | 0.00 | 0.00 | 90 | |
| 20260506234436 | 0 | 281 | 0.0 | 0.0 | 0.00 | 0.00 | 0.00 | 89 | |
| 20260506233936 | 0 | 281 | 0.0 | 1.0 | 0.00 | 0.00 | 0.00 | 88 | |
| 20260506233436 | 0 | 267 | 1.0 | 3.0 | 0.00 | 0.00 | 0.00 | 88 | |
| 20260506232936 | 0 | 260 | 0.0 | 0.0 | 0.00 | 0.00 | 0.00 | 89 | |
| 20260506232436 | 0 | 260 | 0.0 | 0.0 | 0.00 | 0.00 | 0.00 | 90 | |
| 20260506231936 | 0 | 293 | 0.0 | 4.0 | 0.00 | 0.00 | 0.00 | 89 | |
| 20260506231436 | 0 | 250 | 0.0 | 5.0 | 0.00 | 0.00 | 0.00 | 88 | |
| 20260506230936 | 0 | 278 | 4.0 | 5.0 | 0.00 | 0.00 | 0.00 | 87 | |
| 20260506230436 | 0 | 271 | 1.0 | 2.0 | 0.00 | 0.00 | 0.00 | 87 | |
| 20260506225936 | 0 | 132 | 0.0 | 0.0 | 0.00 | 0.00 | 0.00 | 89 | |
| 20260506225436 | 0 | 132 | 0.0 | 0.0 | 0.00 | 0.00 | 0.00 | 88 | |
| 20260506224936 | 0 | 132 | 0.0 | 0.0 | 0.00 | 0.00 | 0.00 | 88 | |
| 20260506224436 | 0 | 132 | 0.0 | 0.0 | 0.00 | 0.00 | 0.00 | 88 | |
| 20260506223936 | 0 | 132 | 0.0 | 3.0 | 0.00 | 0.00 | 0.00 | 89 | |
| 20260506223436 | 0 | 39 | 0.0 | 6.0 | 0.00 | 0.00 | 0.00 | 89 | |
| 20260506222936 | 0 | 45 | 0.0 | 9.0 | 0.00 | 0.00 | 0.00 | 89 | |
| 20260506222436 | 0 | 158 | 4.0 | 8.0 | 0.00 | 0.00 | 0.00 | 89 | |
| 20260506221936 | 0 | 133 | 7.0 | 9.0 | 0.00 | 0.00 | 0.00 | 89 | |
| 20260506221436 | 0 | 149 | 7.0 | 9.0 | 0.00 | 0.00 | 0.00 | 88 | |
| 20260506220936 | 0 | 147 | 2.0 | 3.0 | 0.00 | 0.00 | 0.00 | 87 | |
| 20260506220436 | 0 | 126 | 1.0 | 3.0 | 0.00 | 0.00 | 0.00 | 86 | |
| 20260506215936 | 0 | 205 | 0.0 | 0.0 | 0.00 | 0.00 | 0.00 | 85 | |
| 20260506215436 | 0 | 205 | 0.0 | 2.0 | 0.00 | 0.00 | 0.00 | 85 | |
| 20260506214936 | 0 | 192 | 2.0 | 3.0 | 0.00 | 0.00 | 0.00 | 85 | |
| 20260506214437 | 0 | 46 | 0.0 | 7.0 | 0.00 | 0.00 | 0.00 | 83 | |
| 20260506213937 | 0 | 56 | 0.0 | 6.0 | 0.00 | 0.01 | 0.00 | 84 | |
| 20260506213437 | 0 | 14 | 0.0 | 4.0 | 0.00 | 0.01 | 0.00 | 84 | |
| 20260506212937 | 0 | 347 | 1.0 | 9.0 | 0.00 | 0.01 | 0.00 | 81 | |
| 20260506212437 | 0 | 135 | 0.0 | 5.0 | 0.00 | 0.01 | 0.00 | 83 | |
| 20260506211937 | 0 | 354 | 2.0 | 6.0 | 0.00 | 0.01 | 0.00 | 83 | |
| 20260506211437 | 0 | 9 | 0.0 | 1.0 | 0.00 | 0.01 | 0.00 | 83 | |
| 20260506210937 | 0 | 46 | 0.0 | 0.0 | 0.00 | 0.01 | 0.00 | 83 | |
| 20260506210437 | 0 | 46 | 0.0 | 3.0 | 0.00 | 0.01 | 0.00 | 82 | |
| 20260506205937 | 0 | 344 | 0.0 | 0.0 | 0.00 | 0.01 | 0.00 | 82 | |
| 20260506205437 | 0 | 344 | 0.0 | 0.0 | 0.00 | 0.01 | 0.00 | 81 | |
| 20260506204937 | 0 | 344 | 0.0 | 0.0 | 0.00 | 0.01 | 0.00 | 80 | |
| 20260506204437 | 0 | 344 | 0.0 | 1.0 | 0.00 | 0.01 | 0.00 | 80 | |
| 20260506203937 | 0 | 358 | 1.0 | 3.0 | 0.00 | 0.01 | 0.00 | 81 | |
| 20260506203437 | 0 | 347 | 2.0 | 3.0 | 0.00 | 0.01 | 0.00 | 80 |